STARLINK-2285, 48019

Orbit data source: Space-Track

STARLINK-2285, 48019 is a payload satellite owned by SpaceX/Seattle (US) in LEO that was launched on Wed, 24 Mar 2021 UTC via an FALCON 9 launch vehicle from the Air Force Eastern Test Range (AFETR). Payload-class satellites include a variety of spacecraft equipped with specific instruments for various scientific and technological missions. These include communications satellites like Starlink; space stations such as the ISS; scientific satellites like the Hubble; Earth observation satellites from companies like Planet Labs, Umbra, and HawkEye 360; GPS; miniature CubeSats for education and research; and military/defense satellites.

Loading next visibility...
Identifier
48019, 2021-024AU
Orbit
LEO
Country
Flag of USUS
Related business
Manufacturer
SpaceX/Seattle
Mission
Operational Commercial Communications
Bus & Motor
STARLINK, Unknown motor
Mass
260 kg wet, ~248 kg dry
Launch date (UTC)
2021-03-24 (5 years ago)
Launch vehicle
FALCON 9
Launch site
Air Force Eastern Test Range (AFETR)
Object type
Payload
Rocket body
Debris
Shape & HBR
Box + 1 Pan, 10.1 m
Radar Cross Section
13.562 m², Large (>1 m²)

Expand to show TLE details & history
Last TLE update: 13 hours ago

TLE from 13 hours ago
0 STARLINK-2285
1 48019U 21024AU  26130.00158125 -.00000343  00000-0  70236-6 0  9990
2 48019  53.1613  21.7774 0001281  98.9856 261.1290 15.31697445284312
Epoch: 2026-05-10T00:02Z
TLE epoch observation values (Epoch: 2026-05-10T00:02:16.620Z)
Latitude
-0.00003°
Longitude
153.3972°
Altitude
471.783 km
Speed
7.631 km/s
True Right ascension
01h 27m 06s
True Declination
0° 00' 00"
Sunlit
Object was in daylight at epoch
Visualization orbit readout
Latitude
Unknown
Longitude
Unknown
Altitude
Unknown
Speed
Unknown
Apparent Right ascension
Unknown
Apparent Declination
Unknown
Sunlit
N/A
Visualization observer readout
Local Sidereal Time
21:26:35
Azimuth
Unknown
Elevation
Unknown
Doppler factor
Unknown
Orbital elements
Apogee altitude
471.881 km
Perigee altitude
470.127 km
Semi-major axis
6,849.141 km
Eccentricity
0.00013
Inclination
53.1613°
RAAN
21.7774°
Arg. of periapsis
98.9856°
True anomaly
261.1145°
Mean anomaly
261.129°
Eccentric anomaly
261.12175°
Mean motion
3.82903 °/min
Orbital period
94.02 mins
BSTAR
7.0236e-7
Loading maneuver chart data...
Computing Atmospheric mass density...

Documentation

Showing up to 5 results
|